KUIPER-00122

导读 | 豆包AI

KUIPER-00133是美国亚马逊柯伊伯(Project Kuiper)低轨互联网星座的组网卫星,于2025年9月25日发射升空。该星座计划部署3236颗卫星,旨在为全球提供高速低延迟天基宽带互联网服务,可支持视频通话、高清流媒体等应用,还将拓展太空边缘计算等新场景,是全球低轨卫星互联网竞争的重要组成部分。

基本信息
目录编号:
65764
目录名称:
KUIPER-00133
国际标识:
2025-217C
轨道中心:
EARTH
卫星名称:
KUIPER-00133
卫星全名:
KUIPER-00122
卫星状态:
在轨 (已飞行242 天)
发射日期:
2025-09-25 UTC
国别 :
美国 (US)
星等 :
--
轨道信息
数据来源 国际轨道数据
星历时间: 2026-05-24T12:54:40+0800
22小时前
查看轨道信息
半长轴: 7007.67km
偏心率: 0.0000828
轨道倾角: 51.903°
近地点辐角 80.507°
升交点赤经 79.219°
平近点角 279.599°
近地点: 628.952km
远地点: 630.114km
周期: 97.302分钟
每日圈数: 14.79934
详细信息
使用方式:
暂无
2D轨道图
3D轨道图
轨道高度分析图
轨道倾角分析图
轨道综合分析图
查看轨道综合分析图